(504756) = 2009 WA75

Discovered at Kitt Peak on 2009-11-18 by Spacewatch.

Orbit

Orbit type: Main Belt

Note: WebGL enabled browser required.

epoch2023-02-25.0
epoch JD2460000.5
perihelion date2022-09-21.98163
perihelion JD2459844.48163
argument of perihelion (°)41.55023
ascending node (°)75.14477
inclination (°)12.71075
eccentricity0.1456118
perihelion distance (AU)2.1953295
Tisserand w.r.t. Jupiter3.4
ΔV w.r.t. Earth (km/sec)10.1
semimajor axis (AU)2.5694755
mean anomaly (°)37.33472
mean daily motion (°/day)0.23929690
aphelion distance (AU)2.944
period (years)4.12
P-vector [x]-0.43352952
P-vector [y]0.75781306
P-vector [z]0.48761821
Q-vector [x]-0.87568340
Q-vector [y]-0.48198426
Q-vector [z]-0.02949158
absolute magnitude17.29
phase slope0.15
uncertainty0
referenceMPO 745323
observations used182
oppositions10
arc length (days)6344
first opposition used2005
last opposition used2023
residual rms (arc-secs)0.73
perturbers coarse indicatorM-v
perturbers precise indicator003Ek
first observation date used2005-12-29.0
last observation date used2023-05-13.0
computer nameMPCLINUX
JD of orbit computation2458052.125550
perihelion JD uncertainty (days)4.4318E-04
argument of perihelion uncertainty (°)1.0920E-04
ascending node uncertainty (°)3.0802E-05
inclination uncertainty (°)1.0740E-05
eccentricity uncertainty 7.3203E-08
perihelion distance uncertainty (AU)2.1473E-07
Minimum Orbit Intersection Distances (in AU)
for orbit epoch: 2460000.5, reference: E2023-JE0
Mercury1.87083
Venus1.4826
Earth1.22742
Mars0.60907
Jupiter2.24777
Saturn6.77684
Uranus16.116
Neptune27.2165

Observations

178 total observations over interval: 2005 12 29.27037 – 2023 05 13.220744
These data are available for download (format description).

Date (UT) J2000 RA J2000 Dec Magn Location Ref
2005 12 29.27037 05 17 44.73 +28 03 53.7 19.0 V G96 – Mt. Lemmon Survey MPS 488498
2005 12 29.27833 05 17 44.19 +28 03 56.3 19.3 V G96 – Mt. Lemmon Survey MPS 488498
2005 12 29.28657 05 17 43.65 +28 03 58.8 19.2 V G96 – Mt. Lemmon Survey MPS 488498
2005 12 29.29484 05 17 43.11 +28 04 01.4 19.2 V G96 – Mt. Lemmon Survey MPS 488498
2009 11 18.19455 04 23 47.28 +16 26 45.1 20.5 V 691 – Steward Observatory, Kitt Peak-Spacewatch MPS 305335
2009 11 18.21219 04 23 46.15 +16 26 48.9 20.4 V 691 – Steward Observatory, Kitt Peak-Spacewatch MPS 305335
2009 11 18.22982 04 23 45.00 +16 26 52.8 20.2 V 691 – Steward Observatory, Kitt Peak-Spacewatch MPS 305335
2009 11 22.23529 04 19 26.72 +16 41 00.9 20.1 V 691 – Steward Observatory, Kitt Peak-Spacewatch MPS 305335
2009 11 22.25297 04 19 25.53 +16 41 05.1 19.9 V 691 – Steward Observatory, Kitt Peak-Spacewatch MPS 305335
2009 11 22.27065 04 19 24.33 +16 41 08.9 19.9 V 691 – Steward Observatory, Kitt Peak-Spacewatch MPS 305335
2009 11 23.96447 04 17 31.75 +16 47 17.7 19.6 V J75 – OAM Observatory, La Sagra MPS 305335
2009 11 23.97736 04 17 30.88 +16 47 20.3 19.2 V J75 – OAM Observatory, La Sagra MPS 305335
2009 11 23.99024 04 17 29.97 +16 47 23.0 19.2 V J75 – OAM Observatory, La Sagra MPS 305335
2009 11 26.23112 04 14 59.20 +16 55 43.2 19.8 V 691 – Steward Observatory, Kitt Peak-Spacewatch MPS 305335
2009 11 26.24879 04 14 57.89 +16 55 48.4 20.6 V 691 – Steward Observatory, Kitt Peak-Spacewatch MPS 305335
2009 11 26.26644 04 14 56.72 +16 55 51.2 19.8 V 691 – Steward Observatory, Kitt Peak-Spacewatch MPS 305335
2009 12 11.29227 03 58 22.51 +17 56 07.4 20.4 V 703 – Catalina Sky Survey MPS 307446
2009 12 11.29954 03 58 22.00 +17 56 09.8 19.8 V 703 – Catalina Sky Survey MPS 307446
2009 12 11.30681 03 58 21.64 +17 56 11.1 20.9 V 703 – Catalina Sky Survey MPS 307446
2009 12 11.31405 03 58 21.18 +17 56 13.5 20.1 V 703 – Catalina Sky Survey MPS 307446
2010 02 15.094812 03 58 11.31 +24 03 10.8   C51 – WISE MPS 313625
2010 02 15.227117 03 58 19.38 +24 04 02.6   C51 – WISE MPS 313625
2010 02 15.359421 03 58 27.58 +24 04 55.3   C51 – WISE MPS 372106
2010 02 15.359549 03 58 27.62 +24 04 53.7   C51 – WISE MPS 372106
2010 02 15.49185 03 58 35.79 +24 05 45.5   C51 – WISE MPS 313625
2010 02 15.624156 03 58 44.02 +24 06 37.0   C51 – WISE MPS 313625
2010 02 15.690373 03 58 48.16 +24 07 02.2   C51 – WISE MPS 313625
2010 02 15.756461 03 58 52.31 +24 07 26.6   C51 – WISE MPS 313625
2010 02 15.822676 03 58 56.40 +24 07 52.8   C51 – WISE MPS 372106
2010 02 15.88877 03 59 00.54 +24 08 18.5   C51 – WISE MPS 313625
2010 02 15.954980 03 59 04.68 +24 08 43.7   C51 – WISE MPS 313625
2010 02 16.087285 03 59 12.99 +24 09 34.5   C51 – WISE MPS 372106
2010 02 16.219589 03 59 21.32 +24 10 25.6   C51 – WISE MPS 313625
2010 02 16.219716 03 59 21.34 +24 10 25.1   C51 – WISE MPS 313625
2010 02 16.352021 03 59 29.74 +24 11 15.9   C51 – WISE MPS 372106
2010 02 16.484325 03 59 38.15 +24 12 07.0   C51 – WISE MPS 372106
2011 04 30.40058 14 35 48.389 -01 54 36.61 21.6 w F51 – Pan-STARRS 1, Haleakala MPS 488498
2011 04 30.41411 14 35 47.537 -01 54 36.38 21.7 w F51 – Pan-STARRS 1, Haleakala MPS 488498
2011 04 30.42918 14 35 46.614 -01 54 35.86 21.6 w F51 – Pan-STARRS 1, Haleakala MPS 488498
2011 04 30.44281 14 35 45.759 -01 54 35.55 21.7 w F51 – Pan-STARRS 1, Haleakala MPS 488498
2013 10 13.36264 03 36 50.64 +07 24 35.9 20.5 G G45 – Space Surveillance Telescope, Atom Site MPS 1611134
2013 10 13.37734 03 36 50.22 +07 24 36.6 20.5 G G45 – Space Surveillance Telescope, Atom Site MPS 1611134
2013 10 13.39174 03 36 49.69 +07 24 35.1 20.9 G G45 – Space Surveillance Telescope, Atom Site MPS 1611134
2013 10 13.40564 03 36 49.22 +07 24 35.0 20.5 G G45 – Space Surveillance Telescope, Atom Site MPS 1611134
2013 11 04.43234 03 19 06.005 +07 19 20.74 20.1 w F51 – Pan-STARRS 1, Haleakala MPS 488498
2013 11 04.44629 03 19 05.094 +07 19 21.27 20.2 w F51 – Pan-STARRS 1, Haleakala MPS 488498
2013 11 04.45985 03 19 04.241 +07 19 21.50 20.3 w F51 – Pan-STARRS 1, Haleakala MPS 488498
2013 11 04.47343 03 19 03.371 +07 19 21.92 20.3 w F51 – Pan-STARRS 1, Haleakala MPS 488498
2013 11 08.27822 03 15 05.14 +07 21 47.0 20.8 G G45 – Space Surveillance Telescope, Atom Site MPS 1611134
2013 11 08.29187 03 15 04.28 +07 21 48.0 19.8 G G45 – Space Surveillance Telescope, Atom Site MPS 1611134
2013 11 08.30740 03 15 03.15 +07 21 49.0 20.8 G G45 – Space Surveillance Telescope, Atom Site MPS 1611134
2013 11 08.32175 03 15 02.26 +07 21 49.3 20.6 G G45 – Space Surveillance Telescope, Atom Site MPS 1611134
2013 11 24.29673 02 58 08.913 +07 50 07.36 21.1 w F51 – Pan-STARRS 1, Haleakala MPS 488498
2013 11 24.31002 02 58 08.094 +07 50 09.69 21.2 w F51 – Pan-STARRS 1, Haleakala MPS 488498
2013 11 24.32334 02 58 07.270 +07 50 11.77 21.0 w F51 – Pan-STARRS 1, Haleakala MPS 488498
2013 11 24.33666 02 58 06.431 +07 50 14.06 21.1 w F51 – Pan-STARRS 1, Haleakala MPS 488498
2013 12 26.13047 02 38 35.89 +10 26 24.4 20.8 V G96 – Mt. Lemmon Survey MPS 492061
2013 12 26.13916 02 38 35.80 +10 26 27.6 20.3 V G96 – Mt. Lemmon Survey MPS 492061
2013 12 26.14782 02 38 35.74 +10 26 30.7 20.4 V G96 – Mt. Lemmon Survey MPS 492061
2013 12 26.15650 02 38 35.62 +10 26 34.8 20.1 V G96 – Mt. Lemmon Survey MPS 492061
2015 04 15.44066 13 51 44.651 +06 12 48.73 20.4 w F51 – Pan-STARRS 1, Haleakala MPS 598515
2015 04 15.45579 13 51 43.715 +06 12 50.43 20.3 w F51 – Pan-STARRS 1, Haleakala MPS 598515
2015 04 15.48525 13 51 41.912 +06 12 53.37 20.3 w F51 – Pan-STARRS 1, Haleakala MPS 598515
2015 04 15.50041 13 51 40.978 +06 12 54.85 20.4 w F51 – Pan-STARRS 1, Haleakala MPS 598515
2017 09 30.51131 02 42 08.793 -00 10 25.94 21.4 w F51 – Pan-STARRS 1, Haleakala MPS 819078
2017 09 30.52346 02 42 08.361 -00 10 28.41 21.5 w F51 – Pan-STARRS 1, Haleakala MPS 819078
2017 09 30.53561 02 42 07.946 -00 10 30.74 21.5 w F51 – Pan-STARRS 1, Haleakala MPS 819078
2017 10 11.46778 02 34 40.099 -00 44 28.38 20.3 i F51 – Pan-STARRS 1, Haleakala MPS 823381
2017 10 11.48016 02 34 39.479 -00 44 30.31 20.4 i F51 – Pan-STARRS 1, Haleakala MPS 823381
2017 10 11.49253 02 34 38.844 -00 44 32.71 20.4 i F51 – Pan-STARRS 1, Haleakala MPS 823381
2017 10 11.50494 02 34 38.226 -00 44 34.74 20.3 i F51 – Pan-STARRS 1, Haleakala MPS 823381
2017 10 17.33946 02 29 34.57 -01 00 05.5 20.3 G G96 – Mt. Lemmon Survey MPS 826263
2017 10 17.34487 02 29 34.26 -01 00 06.2 20.4 G G96 – Mt. Lemmon Survey MPS 826263
2017 10 17.35015 02 29 33.95 -01 00 07.2 20.4 G G96 – Mt. Lemmon Survey MPS 826263
2017 10 17.35541 02 29 33.64 -01 00 07.8 20.2 G G96 – Mt. Lemmon Survey MPS 826263
2017 10 25.34443 02 21 48.77 -01 15 32.9 20.6 G G96 – Mt. Lemmon Survey MPS 828209
2017 10 25.34972 02 21 48.50 -01 15 32.7 20.2 G G96 – Mt. Lemmon Survey MPS 828209
2017 10 25.35501 02 21 48.14 -01 15 34.1 20.3 G G96 – Mt. Lemmon Survey MPS 828209
2017 10 25.36029 02 21 47.81 -01 15 34.7 20.4 G G96 – Mt. Lemmon Survey MPS 828209
2017 12 20.13423 01 46 09.94 +02 09 20.7 21.4 G G96 – Mt. Lemmon Survey MPS 851492
2017 12 20.13988 01 46 09.92 +02 09 22.9 21.2 G G96 – Mt. Lemmon Survey MPS 851492
2017 12 20.14553 01 46 09.94 +02 09 25.8 20.9 G G96 – Mt. Lemmon Survey MPS 851492
2017 12 20.15118 01 46 09.96 +02 09 29.2 21.3 G G96 – Mt. Lemmon Survey MPS 851492
2019 04 01.70276 12 59 08.49 +15 05 08.2 20.6 R D29 – Purple Mountain Observatory, XuYi Station MPS 986458
2019 04 01.71690 12 59 07.61 +15 05 11.0 20.6 R D29 – Purple Mountain Observatory, XuYi Station MPS 986458
2019 04 01.73104 12 59 06.76 +15 05 13.2 20.8 R D29 – Purple Mountain Observatory, XuYi Station MPS 986458
2019 04 03.35031 12 57 32.356 +15 09 14.57 20.1 w F51 – Pan-STARRS 1, Haleakala MPS 986458
2019 04 03.36281 12 57 31.598 +15 09 16.34 20.1 w F51 – Pan-STARRS 1, Haleakala MPS 986458
2019 04 03.38803 12 57 30.066 +15 09 19.89 20.1 w F51 – Pan-STARRS 1, Haleakala MPS 986458
2019 04 04.29209 12 56 37.13 +15 11 15.9 20.1 G G96 – Mt. Lemmon Survey MPS 986458
2019 04 04.29773 12 56 36.82 +15 11 16.7   G96 – Mt. Lemmon Survey MPS 986458
2019 04 04.30336 12 56 36.41 +15 11 16.7   G96 – Mt. Lemmon Survey MPS 986458
2019 04 04.30900 12 56 36.11 +15 11 17.7   G96 – Mt. Lemmon Survey MPS 986458
